Weather History for Morganton, NC

Change the Weather History Date:

Friday, March 1, 2013

  Actual Average (KHKY) Record (KHKY)
Temperature  
Mean Temperature 36 °F -  
Max Temperature 44 °F 56 °F 77 °F (2006)
Min Temperature 27 °F 35 °F 14 °F (1980)
Degree Days  
Heating Degree Days 30    
Moisture  
Dew Point 27 °F    
Average Humidity 67    
Maximum Humidity 92    
Minimum Humidity 48    
Precipitation  
Precipitation 0.00 in - - ()
Sea Level Pressure  
Sea Level Pressure 29.93 in    
Wind  
Wind Speed 3 mph (West)    
Max Wind Speed 9 mph    
Max Gust Speed -    
Visibility 10 miles    
Events      
Averages and records for this station are not official NWS values.
T = Trace of Precipitation, MM = Missing Value Source: NWS Daily Summary

Daily Weather History Graph

Daily Weather History Graph

Search for Another Location

Airport:

Trip Planner

Search our weather history database for the weather conditions in past years. The results will help you decide how hot, cold, wet, or windy it might be!

Date:

Astronomy

Mar. 01, 2013 Rise Set
Actual Time 6:56 AM EST 6:21 PM EST
Civil Twilight 6:30 AM EST 6:47 PM EST
Nautical Twilight 6:00 AM EST 7:17 PM EST
Astronomical Twilight 5:31 AM EST 7:46 PM EST
Moon 10:42 PM EST (3/1) 8:51 AM EST (3/1)
Length of Visible Light 12h 16m
Length of Day
11h 25m
Waning Gibbous, 83% of the Moon is Illuminated
Mar 1
Waning Gibbous
Mar 4
Last Quarter
Mar 11
New
Mar 19
First Quarter
Mar 27
Full

Hourly Weather History & Observations

Time (EST) Temp. Windchill Dew Point Humidity Pressure Visibility Wind Dir Wind Speed Gust Speed Precip Events Conditions
12:15 AM 36.1 °F 32.3 °F 26.4 °F 68% 29.92 in 10.0 mi NW 4.6 mph - N/A   Overcast
12:35 AM 36.7 °F 32.9 °F 26.4 °F 66% 29.92 in 10.0 mi WNW 4.6 mph - N/A   Overcast
12:55 AM 36.5 °F - 26.2 °F 66% 29.93 in 10.0 mi Calm Calm - N/A   Overcast
1:15 AM 36.5 °F 33.9 °F 26.4 °F 67% 29.93 in 10.0 mi West 3.5 mph - N/A   Overcast
1:35 AM 36.5 °F 31.8 °F 25.9 °F 65% 29.92 in 10.0 mi WNW 5.8 mph - N/A   Overcast
2:15 AM 36.5 °F 33.9 °F 26.1 °F 66% 29.92 in 10.0 mi SW 3.5 mph - N/A   Overcast
2:35 AM 35.8 °F - 27.1 °F 71% 29.91 in 10.0 mi Calm Calm - N/A   Overcast
2:55 AM 36.0 °F 33.3 °F 27.0 °F 70% 29.91 in 10.0 mi SW 3.5 mph - N/A   Overcast
3:15 AM 34.7 °F - 27.9 °F 76% 29.90 in 10.0 mi Calm Calm - N/A   Mostly Cloudy
3:35 AM 32.9 °F - 28.4 °F 84% 29.90 in 10.0 mi Calm Calm - N/A   Overcast
3:55 AM 32.0 °F - 29.3 °F 90% 29.90 in 10.0 mi Calm Calm - N/A   Overcast
4:15 AM 32.4 °F - 28.4 °F 85% 29.90 in 10.0 mi Calm Calm - N/A   Overcast
4:55 AM 30.2 °F 26.7 °F 27.9 °F 91% 29.91 in 10.0 mi NNW 3.5 mph - N/A   Mostly Cloudy
5:15 AM 32.2 °F 27.7 °F 26.6 °F 80% 29.92 in 10.0 mi NNW 4.6 mph - N/A   Scattered Clouds
5:35 AM 31.8 °F 28.5 °F 25.9 °F 79% 29.92 in 10.0 mi NNW 3.5 mph - N/A   Clear
5:55 AM 32.5 °F 29.3 °F 25.9 °F 76% 29.93 in 10.0 mi WSW 3.5 mph - N/A   Clear
6:15 AM 31.1 °F - 25.9 °F 81% 29.93 in 10.0 mi Calm Calm - N/A   Clear
6:35 AM 28.2 °F - 25.2 °F 88% 29.93 in 10.0 mi Calm Calm - N/A   Clear
6:55 AM 27.3 °F - 25.3 °F 92% 29.93 in 10.0 mi Calm Calm - N/A   Clear
7:15 AM 28.4 °F - 25.9 °F 90% 29.93 in 10.0 mi Calm Calm - N/A   Mostly Cloudy
7:35 AM 31.6 °F - 27.5 °F 85% 29.93 in 10.0 mi Calm Calm - N/A   Overcast
7:55 AM 32.4 °F - 28.4 °F 85% 29.94 in 10.0 mi Calm Calm - N/A   Overcast
8:15 AM 33.8 °F - 28.6 °F 81% 29.94 in 10.0 mi Calm Calm - N/A   Overcast
8:35 AM 34.9 °F - 29.3 °F 80% 29.94 in 10.0 mi Calm Calm - N/A   Overcast
8:55 AM 36.9 °F - 29.5 °F 75% 29.95 in 10.0 mi Calm Calm - N/A   Overcast
9:15 AM 37.8 °F 35.3 °F 28.9 °F 71% 29.95 in 10.0 mi SW 3.5 mph - N/A   Overcast
9:35 AM 38.5 °F 35.0 °F 28.9 °F 69% 29.94 in 10.0 mi WSW 4.6 mph - N/A   Overcast
9:55 AM 39.2 °F 35.9 °F 28.4 °F 65% 29.94 in 10.0 mi WSW 4.6 mph - N/A   Overcast
10:15 AM 39.6 °F 36.3 °F 28.2 °F 64% 29.95 in 10.0 mi WSW 4.6 mph - N/A   Overcast
10:35 AM 39.7 °F 35.6 °F 27.9 °F 63% 29.95 in 10.0 mi SW 5.8 mph - N/A   Overcast
11:15 AM 40.8 °F 37.8 °F 27.9 °F 60% 29.95 in 10.0 mi West 4.6 mph - N/A   Overcast
11:35 AM 40.8 °F 35.0 °F 27.3 °F 59% 29.95 in 10.0 mi SW 9.2 mph - N/A   Overcast
11:55 AM 41.0 °F 37.1 °F 27.0 °F 57% 29.95 in 10.0 mi SW 5.8 mph - N/A   Overcast
12:15 PM 41.2 °F 39.2 °F 27.1 °F 57% 29.95 in 10.0 mi WSW 3.5 mph - N/A   Overcast
12:35 PM 41.4 °F 36.8 °F 27.7 °F 58% 29.94 in 10.0 mi WNW 6.9 mph - N/A   Overcast
1:15 PM 41.9 °F 37.5 °F 27.5 °F 57% 29.93 in 10.0 mi WSW 6.9 mph - N/A   Overcast
1:35 PM 42.1 °F 40.2 °F 27.5 °F 56% 29.92 in 10.0 mi WSW 3.5 mph - N/A   Overcast
1:55 PM 42.4 °F 40.7 °F 27.1 °F 55% 29.91 in 10.0 mi NW 3.5 mph - N/A   Overcast
2:15 PM 43.0 °F 40.3 °F 26.6 °F 52% 29.90 in 10.0 mi NW 4.6 mph - N/A   Overcast
2:35 PM 43.5 °F 41.9 °F 26.2 °F 51% 29.90 in 10.0 mi WNW 3.5 mph - N/A   Overcast
2:55 PM 43.7 °F 40.3 °F 26.2 °F 50% 29.90 in 10.0 mi NW 5.8 mph - N/A   Overcast
3:15 PM 43.7 °F 39.7 °F 26.2 °F 50% 29.90 in 10.0 mi West 6.9 mph - N/A   Overcast
3:35 PM 44.1 °F 41.5 °F 25.7 °F 49% 29.89 in 10.0 mi NW 4.6 mph - N/A   Overcast
4:15 PM 44.1 °F 41.5 °F 25.5 °F 48% 29.89 in 10.0 mi West 4.6 mph - N/A   Overcast
4:35 PM 44.1 °F 39.5 °F 25.3 °F 48% 29.90 in 10.0 mi West 8.1 mph - N/A   Overcast
4:55 PM 44.2 °F 41.8 °F 26.4 °F 50% 29.90 in 10.0 mi WSW 4.6 mph - N/A   Overcast
5:15 PM 44.1 °F 41.5 °F 25.3 °F 48% 29.90 in 10.0 mi NNW 4.6 mph - N/A   Overcast
5:35 PM 43.9 °F 40.5 °F 25.7 °F 49% 29.90 in 10.0 mi West 5.8 mph - N/A   Overcast
5:55 PM 43.3 °F 38.6 °F 26.1 °F 51% 29.91 in 10.0 mi West 8.1 mph - N/A   Overcast
6:15 PM 42.4 °F 38.8 °F 26.4 °F 53% 29.92 in 10.0 mi West 5.8 mph - N/A   Overcast
6:35 PM 42.1 °F 38.4 °F 26.4 °F 54% 29.93 in 10.0 mi West 5.8 mph - N/A   Overcast
6:55 PM 41.5 °F 38.6 °F 26.2 °F 55% 29.93 in 10.0 mi West 4.6 mph - N/A   Overcast
7:15 PM 41.2 °F - 26.2 °F 55% 29.93 in 10.0 mi Calm Calm - N/A   Overcast
7:35 PM 41.0 °F - 26.6 °F 57% 29.93 in 10.0 mi Calm Calm - N/A   Overcast
7:55 PM 38.3 °F - 27.9 °F 66% 29.94 in 10.0 mi Calm Calm - N/A   Overcast
8:15 PM 38.5 °F - 27.7 °F 65% 29.94 in 10.0 mi Calm Calm - N/A   Overcast
8:35 PM 39.0 °F - 28.4 °F 66% 29.94 in 10.0 mi Calm Calm - N/A   Overcast
8:55 PM 37.0 °F - 29.8 °F 75% 29.94 in 10.0 mi Calm Calm - N/A   Overcast
9:15 PM 36.7 °F - 30.2 °F 77% 29.94 in 10.0 mi Calm Calm - N/A   Overcast
9:35 PM 37.2 °F - 29.7 °F 74% 29.94 in 10.0 mi Calm Calm - N/A   Overcast
9:55 PM 39.0 °F 36.8 °F 28.0 °F 65% 29.94 in 10.0 mi West 3.5 mph - N/A   Overcast
10:15 PM 39.2 °F - 27.5 °F 63% 29.94 in 10.0 mi Calm Calm - N/A   Overcast
10:35 PM 38.7 °F - 28.0 °F 66% 29.94 in 10.0 mi Calm Calm - N/A   Overcast
10:55 PM 34.9 °F - 29.3 °F 80% 29.93 in 10.0 mi Calm Calm - N/A   Mostly Cloudy
11:15 PM 36.1 °F 33.5 °F 27.3 °F 70% 29.93 in 10.0 mi NW 3.5 mph - N/A   Scattered Clouds
11:35 PM 32.2 °F - 27.3 °F 82% 29.93 in 10.0 mi Calm Calm - N/A   Mostly Cloudy
11:55 PM 32.7 °F - 28.6 °F 85% 29.93 in 10.0 mi Calm Calm - N/A   Overcast